Preview of NWS' New Version of Forecast
This preview is not operational and should not be used for support decisions.

Regional Weather Roundup (RWR)

Issued by National Weather Service (NWS)

                            
000
ASUS43 KBIS 251310
RWRND 

NORTH DAKOTA REGIONAL WEATHER ROUNDUP
NATIONAL WEATHER SERVICE BISMARCK ND
800 AM CDT SUN AUG 25 2019

NOTE: "FAIR" INDICATES FEW OR NO CLOUDS BELOW 12,000 FEET WITH NO
SIGNIFICANT WEATHER AND/OR OBSTRUCTIONS TO VISIBILITY.


NDZ001>003-009>011-017-251400-
NORTHWEST NORTH DAKOTA
  
CITY           SKY/WX    TMP DP  RH WIND       PRES   REMARKS
WILLISTON      MOCLDY    64  58  80 NE6       29.71F                  
MINOT          CLOUDY    64  62  93 NE7       29.71R                  
MINOT AFB      CLOUDY    64  63  98 SE8       29.70R                  
$$
 
NDZ018>021-031>035-040>046-251400-
SOUTHWEST NORTH DAKOTA
  
CITY           SKY/WX    TMP DP  RH WIND       PRES   REMARKS
BISMARCK       CLOUDY    66  65  96 S6        29.76S                  
DICKINSON      CLOUDY    62  60  93 S10       29.72F                  
GARRISON         N/A     64  63  96 S13       29.71S                  
HETTINGER ARPT CLOUDY    61  58  90 S6        29.76F                  
$$
 
NDZ004>008-012>016-024-026-027-054-251400-
NORTHEAST NORTH DAKOTA
  
CITY           SKY/WX    TMP DP  RH WIND       PRES   REMARKS
GRAND FORKS    CLOUDY    63  55  75 S13G23    29.82S                  
GRND FRKS AFB  CLOUDY    63  58  83 S12       29.81F                  
DEVILS LAKE    CLOUDY    63  61  93 S10       29.79S                  
$$
 
NDZ022-023-025-028>030-036>039-047>053-251400-
SOUTHEAST NORTH DAKOTA
  
CITY           SKY/WX    TMP DP  RH WIND       PRES   REMARKS
FARGO          CLOUDY    64  56  75 S16G28    29.86S                  
JAMESTOWN      TSTM      63  63 100 SW3       29.83R VSB 3/4          
$$